Flag for Ireland Weather past 2 weeks in Dublin, Ireland

Now
61 °F

Partly sunny.


Feels Like: 61 °F
Forecast: 47 / 64 °F
Wind: 12 mph from Northeast

Location: Dublin Airport

Current Time: Sep 20, 2014 at 7:33:48 PM

Latest Report: Sep 20, 2014 at 7:00 PM


Visibility: N/A

Pressure: 30.18 "Hg

Humidity: 63%

Dew point: 48 °F

Location of DublinLocation

Historic Weather in Dublin — Graph

°F

Dublin temperature yesterday

Maximum temperature yesterday: 61 °F (at 11:00 AM)
Minimum temperature yesterday: 55 °F (at 1:00 AM)
Average temperature yesterday: 59 °F

Past Weeks' High & Low Weather Summary

 TemperatureHumidityPressure
High68 °F (Sep 11, 1:30 PM)100% (Sep 5, 11:30 PM)30.33 "Hg (Sep 5, 11:30 PM)
Low39 °F (Sep 8, 2:00 AM)55% (Sep 8, 2:00 PM)29.83 "Hg (Sep 18, 6:00 AM)
Average56 °F88%30.09 "Hg
* Reported Sep 5 2:00 PM — Sep 20 2:30 PM, Dublin, Weather by CustomWeather, © 2014

Note: Actual official high and low records may vary slightly from our data, if they occured in-between our weather recording intervals... More about our weather records

Advertising

Dublin weather history for previous 24 hours

 ConditionsComfort  
Time TempWeatherWind HumidityBarometerVisibility
2:30 PM
Sep 20
63 °FPartly sunny.10 mph68%30.12 "HgN/A
2:00 PM61 °FPartly sunny.12 mph72%30.12 "HgN/A
1:30 PM61 °FPartly sunny.12 mph72%30.12 "HgN/A
1:00 PM63 °FScattered clouds.14 mph73%30.12 "HgN/A
12:30 PM61 °FScattered clouds.13 mph72%30.12 "HgN/A
12:00 PM61 °FScattered clouds.14 mph72%30.12 "HgN/A
11:30 AM59 °FScattered clouds.13 mph77%30.12 "HgN/A
11:00 AM57 °FPartly sunny.13 mph82%30.12 "HgN/A
10:30 AM55 °FPartly sunny.10 mph88%30.12 "HgN/A
10:00 AM55 °FPartly sunny.13 mph82%30.09 "HgN/A
9:30 AM55 °FPartly sunny.9 mph88%30.09 "HgN/A
9:00 AM55 °FPartly sunny.10 mph88%30.09 "HgN/A
8:30 AM55 °FBroken clouds.12 mph88%30.07 "HgN/A
8:00 AM55 °FPartly cloudy.9 mph88%30.07 "HgN/A
7:30 AM55 °FPartly cloudy.12 mph94%30.07 "HgN/A
7:00 AM55 °FPartly cloudy.12 mph94%30.07 "HgN/A
6:30 AM57 °FPartly cloudy.13 mph88%30.04 "HgN/A
6:00 AM57 °FPartly cloudy.12 mph94%30.04 "HgN/A
5:30 AM57 °FPartly cloudy.10 mph94%30.04 "Hg5 mi
5:00 AM59 °FPartly cloudy.10 mph94%30.04 "Hg4 mi
4:30 AM57 °FFog.8 mph100%30.04 "Hg3 mi
4:00 AM57 °FPartly cloudy.9 mph100%30.04 "Hg4 mi
3:30 AM57 °FPartly cloudy.8 mph100%30.01 "Hg4 mi
3:00 AM57 °FPartly cloudy.6 mph100%30.01 "Hg4 mi
2:00 AM57 °FPassing clouds.3 mph100%30.01 "Hg4 mi
1:00 AM57 °FPassing clouds.5 mph100%30.01 "Hg4 mi
12:30 AM57 °FPassing clouds.5 mph100%30.01 "Hg4 mi
12:00 AM57 °FPassing clouds.2 mph100%30.01 "Hg5 mi
11:30 PM
Sep 19
57 °FPassing clouds.2 mph100%30.01 "Hg5 mi
11:00 PM59 °FPassing clouds.3 mph94%30.01 "Hg5 mi
10:30 PM59 °FPassing clouds.2 mph94%30.01 "HgN/A
10:00 PM59 °FPassing clouds.2 mph94%30.01 "HgN/A
9:30 PM59 °FPartly cloudy.3 mph94%29.98 "Hg5 mi
9:00 PM57 °FPassing clouds.5 mph100%29.98 "HgN/A
8:30 PM59 °FPartly sunny.7 mph94%29.98 "Hg4 mi
8:00 PM59 °FBroken clouds.6 mph94%29.98 "Hg4 mi
7:30 PM59 °FSprinkles. Broken clouds.8 mph94%29.95 "Hg4 mi
7:00 PM57 °FBroken clouds.7 mph100%29.95 "Hg4 mi
Weather by CustomWeather, © 2014

See weather overviewHow to use our weather pages